Regional Weather Roundup
Issued by NWS

Home | Current Version | Previous Version | Text Only | Print | Product List | Glossary Off
Versions: 1 2 3 4 5 6 7 8 9 10 11 12 13 14 15 16 17 18 19 20 21 22 23 24 25 26 27 28 29 30 31 32 33 34 35 36 37 38 39 40 41 42 43 44 45 46 47 48 49 50

000
ASUS43 KDMX 231107
RWRIA

WEATHER ROUNDUP FOR IOWA
NATIONAL WEATHER SERVICE DES MOINES IA
600 AM CDT SAT MAY 23 2015

NOTE: "FAIR" INDICATES FEW OR NO CLOUDS BELOW 12,000 FEET WITH NO
SIGNIFICANT WEATHER AND/OR OBSTRUCTIONS TO VISIBILITY.

* - THESE STATIONS ARE NOT NWS STATIONS...THUS NOT UNDER NWS
QUALITY CONTROL.  THEY ALSO DO NOT REPORT WEATHER SUCH
AS PRECIPITATION OR FOG.

IAZ001>003-012>014-020>022-031>034-043>046-231200-
   NORTHWEST IOWA

CITY           SKY/WX    TMP DP  RH WIND       PRES   REMARKS
CARROLL *      CLOUDY    55  50  82 E6        30.22S
CHEROKEE *     CLOUDY    55  52  88 CALM      30.22S
DENISON *      CLOUDY    54  52  94 SE5       30.19S
LE MARS *      CLOUDY    57  50  77 CALM      30.21F
ORANGE CITY *  CLOUDY    54  48  82 CALM      30.21S
SHELDON *      CLOUDY    55  50  82 E6        30.21S
SIOUX CITY     CLOUDY    56  50  80 E8        30.19F
SPENCER        CLOUDY    55  50  83 SE5       30.23R
STORM LAKE *   CLOUDY    55  48  76 SE6       30.23S
$$

IAZ055>058-069>071-079>083-090>094-231200-
   SOUTHWEST IOWA

CITY           SKY/WX    TMP DP  RH WIND       PRES   REMARKS
ATLANTIC *     CLOUDY    55  52  88 NE6       30.21F
AUDUBON *      CLOUDY    55  50  82 CALM      30.23S
CLARINDA *     CLOUDY    57  52  82 CALM      30.23S
COUNCIL BLFS * CLOUDY    57  54  88 SE5       30.20S
CRESTON *      CLOUDY    55  54  94 SE5       30.24R
HARLAN  *      CLOUDY    55  55 100 CALM      30.24F
LAMONI         CLOUDY    58  52  80 E5        30.23S
RED OAK *      CLOUDY    57  52  82 SE5       30.21S
SHENANDOAH *   CLOUDY    57  52  82 SE7       30.21S
$$

IAZ047>049-059>061-072>074-084-231200-
   CENTRAL IOWA

CITY           SKY/WX    TMP DP  RH WIND       PRES   REMARKS
AMES           MOCLDY    53  48  83 CALM      30.26R
ANKENY *       CLOUDY    55  52  88 CALM      30.25S
CHARITON *     CLOUDY    54  52  94 SE5       30.25S
DES MOINES     MOCLDY    58  48  69 E5        30.25R
GRINNELL*      MOCLDY    54  48  82 CALM      30.27S
KNOXVILLE *    CLOUDY    55  48  76 CALM      30.25R
MARSHALLTOWN   CLOUDY    54  48  80 SE3       30.26R
PELLA *        PTCLDY    52  52 100 E3        30.27R
PERRY *        CLOUDY    55  50  82 E6        30.24S
$$

IAZ004>006-015-016-023>025-035-036-231200-
   NORTH CENTRAL IOWA

CITY           SKY/WX    TMP DP  RH WIND       PRES   REMARKS
ALGONA *       CLOUDY    55  50  82 E7        30.25R
CLARION *      CLOUDY    57  48  72 E7        30.25S
ESTHERVILLE    CLOUDY    52  48  86 E7        30.23S
FORT DODGE *   CLOUDY    55  46  71 SE6       30.25S
MASON CITY     CLOUDY    56  45  66 CALM      30.26R
FOREST CITY *  CLOUDY    54  45  71 SW5       30.26R
IOWA FALLS *   CLOUDY    55  46  71 S6        30.27R
$$

IAZ007>011-017>019-026>030-037>042-050>054-066-231200-
   NORTHEAST IOWA

CITY           SKY/WX    TMP DP  RH WIND       PRES   REMARKS
CEDAR RAPIDS   PTCLDY    53  50  89 CALM      30.26R
CHARLES CITY * CLOUDY    55  46  71 CALM      30.26R
CLINTON *      CLOUDY    55  39  54 SE8       30.31R
DECORAH *      CLEAR     54  45  71 SE5       30.25R
DUBUQUE        MOCLDY    55  39  54 S6        30.29R
MONTICELLO *   CLOUDY    54  46  76 CALM      30.28R
OELWEIN *      MOCLDY    52  46  82 S3        30.27R
WATERLOO       CLOUDY    53  48  83 CALM      30.25R
$$

IAZ064-065-067-068-078-231200-
   EAST CENTRAL IOWA

CITY           SKY/WX    TMP DP  RH WIND       PRES   REMARKS
DAVENPORT      MOCLDY    54  43  66 SE5       30.28R
IOWA CITY      PTCLDY    54  49  83 CALM      30.28R
MT. PLEASANT *   N/A     50  50 100 S3        30.28R FOG
MUSCATINE *    CLEAR     52  50  93 CALM      30.28S
QUAD CITIES    CLOUDY    50  44  80 E5        30.28R
$$

IAZ062-063-075>077-085>089-095>099-231200-
   SOUTHEAST IOWA

CITY           SKY/WX    TMP DP  RH WIND       PRES   REMARKS
BURLINGTON     PTCLDY    54  53  97 CALM      30.28R
FAIRFIELD *    CLOUDY    54  52  94 S3        30.27S
FORT MADISON * PTCLDY    55  54  94 CALM      30.29S
KEOKUK *       CLEAR     50  50 100 CALM      30.27S
OSKALOOSA *      N/A     50  48  93 E3        30.27S
CENTERVILLE *  PTCLDY    52  52 100 SE5       30.27S
OTTUMWA        CLEAR     50  49  96 SE3       30.26S
WASHINGTON *   PTCLDY    52  50  93 SW5       30.29R
$$

ABBREVIATIONS USED IN REMARKS
   TC - TEMPERATURES IN CELSIUS
  WCI - WIND CHILL INDEX
   HX - HEAT INDEX
  VSB - VISIBILITY
$$




USA.gov is the U.S. government's official web portal to all federal, state and local government web resources and services.